Location: Bednik
(45.3500°N, 16.3833°E)
Time: 06:25:39
(UTC+00:00)

FREGAT/IRIS - Pass Details

Date: 08 August 2020
Orbit: 315 x 318 km, 96.9° (Epoch: 23 September)

Event Time Altitude Azimuth Distance (km) Brightness Sun altitude
Rises 18:50:39 0° 179° (S) 2,084 6.0 -6.9°
Reaches altitude 10° 18:52:34 10° 186° (S) 1,255 4.9 -7.2°
Maximum altitude 18:55:08 43° 261° (W) 479 3.5 -7.5°
Drops below altitude 10° 18:57:44 10° 335° (NNW) 1,268 6.2 -7.9°
Sets 18:59:41 0° 342° (NNW) 2,109 7.2 -8.2°
